Date_and_time,latitude,longitude,wind_speed,RelWindDirFrom,WindDirFrom,air_pressure,air_temperature,relative_humidity,Temp,platform_speed_wrt_ground,air_pressure_at_mean_sea_level,platform_orientation
2019-09-12 23:40,50.6304566666667,-96.980785,15.9,18.9,50,990.62,11.8,76,14.85,0.0,1017.26,270.0
2019-09-12 23:50,50.6304566666667,-96.9807833333333,16.2,21.5,52,990.54,11.8,74,14.86,0.0,1017.19,270.0
2019-09-13 00:00,50.63046,-96.98077,17.2,21.6,50,990.33,11.9,74,14.92,0.0,1016.98,156.3
2019-09-13 00:10,50.6304566666667,-96.9807816666667,16.5,20.8,50,990.21,11.9,75,14.93,0.0,1016.88,156.3
2019-09-13 00:20,50.6304566666667,-96.98078,17.4,20.5,44,990.06,11.7,77,14.91,0.0,1016.75,156.3
2019-09-13 00:30,50.6304583333333,-96.9807783333333,17.1,21.7,41,990.01,11.7,77,14.88,0.0,1016.71,156.3
2019-09-13 00:40,50.6304583333333,-96.98078,16.7,19.6,42,989.89,11.9,76,14.86,0.0,1016.60,156.3
2019-09-13 00:50,50.63046,-96.9807816666667,17.5,20.2,48,989.90,12.0,75,14.84,0.0,1016.63,156.3
2019-09-13 01:00,50.6304583333333,-96.98078,16.2,20.1,48,989.90,12.0,77,14.82,0.0,1016.64,0.0
2019-09-13 01:10,50.6304583333333,-96.9807783333333,16.6,19.8,47,989.80,12.0,77,14.81,0.0,1016.54,0.0
2019-09-13 01:20,50.6304583333333,-96.9807783333333,16.6,19.9,54,989.69,12.2,74,14.80,0.0,1016.41,0.0
2019-09-13 01:30,50.6304583333333,-96.9807783333333,16.2,19.6,52,989.59,12.3,73,14.80,0.0,1016.31,0.0
2019-09-13 01:40,50.6304583333333,-96.9807783333333,15.3,19.2,54,989.60,12.3,71,14.79,0.0,1016.32,0.0
2019-09-13 01:50,50.63046,-96.9807783333333,15.5,21.2,54,989.52,12.6,71,14.79,0.0,1016.22,0.0
2019-09-13 02:00,50.63046,-96.9807783333333,15.7,21.3,55,989.43,12.6,69,14.78,0.0,1016.13,360.0
2019-09-13 02:10,50.63046,-96.98078,14.0,17.3,57,989.23,12.6,68,14.77,0.0,1015.93,360.0
2019-09-13 02:20,50.6304616666667,-96.98078,14.3,18.9,60,989.19,12.7,67,14.76,0.0,1015.88,360.0
2019-09-13 02:30,50.6304616666667,-96.9807783333333,14.1,19.2,62,989.12,12.7,67,14.75,0.0,1015.80,360.0
2019-09-13 02:40,50.6304616666667,-96.98078,13.8,19.3,58,988.98,12.5,68,14.74,0.0,1015.66,360.0
2019-09-13 02:50,50.6304616666667,-96.9807783333333,13.3,21.0,64,988.90,12.3,69,14.74,0.0,1015.59,360.0
2019-09-13 03:00,50.6304616666667,-96.9807783333333,14.0,17.6,66,988.81,11.9,75,14.73,0.0,1015.52,293.6
2019-09-13 03:10,50.6304616666667,-96.9807783333333,13.8,17.0,62,988.57,11.5,80,14.72,0.0,1015.28,293.6
2019-09-13 03:20,50.6304616666667,-96.9807783333333,16.5,19.8,67,988.42,11.2,82,14.70,0.0,1015.14,293.6
2019-09-13 03:30,50.6304616666667,-96.9807783333333,15.7,18.5,70,988.46,11.0,83,14.69,0.0,1015.18,293.6
2019-09-13 03:40,50.6304616666667,-96.9807783333333,12.8,15.8,57,988.27,10.8,87,14.67,0.0,1014.98,293.6
2019-09-13 03:50,50.6304616666667,-96.9807783333333,17.2,20.6,65,987.92,10.6,91,14.67,0.0,1014.64,293.6
2019-09-13 04:00,50.6304616666667,-96.9807783333333,17.1,19.9,61,987.84,10.4,94,14.67,0.0,1014.56,360.0
2019-09-13 04:10,50.6304616666667,-96.98078,16.1,19.7,60,987.92,10.4,94,14.66,0.0,1014.64,360.0
2019-09-13 04:20,50.6304616666667,-96.98078,14.5,17.2,66,987.84,10.3,92,14.66,0.0,1014.56,360.0
2019-09-13 04:30,50.6304616666667,-96.98078,14.3,17.6,64,987.64,10.4,94,14.65,0.0,1014.37,360.0
2019-09-13 04:40,50.6304766666667,-96.9808183333333,15.4,18.1,64,987.41,10.3,94,14.66,0.0,1014.14,360.0
2019-09-13 04:50,50.630465,-96.9807883333333,16.2,18.8,63,987.18,10.4,93,14.66,0.0,1013.92,360.0
2019-09-13 05:00,50.6304633333333,-96.9807933333333,15.4,20.3,62,987.15,10.5,94,14.66,0.0,1013.90,305.3
2019-09-13 05:10,50.630465,-96.98079,16.4,19.6,54,987.00,10.4,94,14.65,0.0,1013.77,305.3
2019-09-13 05:20,50.630465,-96.9807883333333,15.3,18.4,57,986.89,10.3,94,14.64,0.0,1013.66,305.3
2019-09-13 05:30,50.6304616666667,-96.980785,15.5,18.2,45,986.52,10.2,97,14.64,0.0,1013.30,305.3
2019-09-13 05:40,50.6304316666667,-96.9807683333333,16.1,21.2,44,986.34,10.1,99,14.64,0.0,1013.13,305.3
2019-09-13 05:50,50.630465,-96.980775,17.0,20.4,50,986.18,10.4,94,14.63,0.0,1012.96,305.3
2019-09-13 06:00,50.630465,-96.9807716666667,17.8,20.9,55,986.07,10.5,95,14.63,0.0,1012.85,60.8
2019-09-13 06:10,50.6304583333333,-96.98078,18.1,21.7,50,985.80,10.3,97,14.63,0.0,1012.58,60.8
2019-09-13 06:20,50.63046,-96.9807816666667,17.1,19.8,46,985.53,10.2,96,14.63,0.0,1012.31,60.8
2019-09-13 06:30,50.6304633333333,-96.9807833333333,17.5,20.7,45,985.41,10.3,97,14.62,0.0,1012.18,60.8
2019-09-13 06:40,50.6304616666667,-96.9807833333333,17.2,20.9,38,985.30,10.3,97,14.61,0.0,1012.07,60.8
2019-09-13 06:50,50.6304616666667,-96.9807833333333,15.9,19.4,33,985.27,10.3,96,14.61,0.0,1012.03,60.8
2019-09-13 07:00,50.6304633333333,-96.9807816666667,16.7,19.8,31,985.20,10.3,96,14.59,0.0,1011.97,0.0
2019-09-13 07:10,50.6304633333333,-96.98078,15.7,18.8,31,985.12,10.3,95,14.58,0.0,1011.89,0.0
2019-09-13 07:20,50.6304633333333,-96.9807816666667,15.7,18.2,27,984.94,10.4,96,14.56,0.0,1011.70,0.0
2019-09-13 07:30,50.6304616666667,-96.9807816666667,15.3,18.8,30,984.84,10.4,95,14.55,0.0,1011.60,0.0
2019-09-13 07:40,50.6304533333333,-96.98078,15.2,18.2,32,984.71,10.4,93,14.55,0.0,1011.46,0.0
2019-09-13 07:50,50.63046,-96.9807766666667,15.5,18.7,29,984.52,10.5,93,14.55,0.0,1011.25,0.0
2019-09-13 08:00,50.6304616666667,-96.9807783333333,16.2,19.1,35,984.39,10.4,95,14.55,0.0,1011.13,90.0
2019-09-13 08:10,50.6304616666667,-96.980775,16.8,19.5,31,984.19,10.3,94,14.53,0.0,1010.94,90.0
2019-09-13 08:20,50.6304616666667,-96.9807733333333,15.1,18.9,31,984.09,10.3,95,14.51,0.0,1010.83,90.0
2019-09-13 08:30,50.6304616666667,-96.9807733333333,17.2,19.4,30,983.91,10.3,95,14.50,0.0,1010.64,90.0
2019-09-13 08:40,50.6304616666667,-96.9807716666667,16.3,19.7,34,983.91,10.4,96,14.48,0.0,1010.64,90.0
2019-09-13 08:50,50.6304616666667,-96.9807716666667,16.5,19.6,35,983.89,10.4,98,14.47,0.0,1010.62,90.0
2019-09-13 09:00,50.6304616666667,-96.9807716666667,17.2,20.2,32,983.84,10.4,98,14.46,0.0,1010.57,142.0
2019-09-13 09:10,50.6304633333333,-96.9807716666667,17.4,20.1,29,983.67,10.5,97,14.46,0.0,1010.38,142.0
2019-09-13 09:20,50.6304616666667,-96.9807733333333,17.1,20.0,27,983.58,10.5,96,14.45,0.0,1010.28,142.0
2019-09-13 09:30,50.6304616666667,-96.9807733333333,16.4,20.1,30,983.46,10.5,96,14.43,0.0,1010.16,142.0
2019-09-13 09:40,50.6304616666667,-96.9807733333333,15.2,17.7,26,983.43,10.4,96,14.44,0.0,1010.13,142.0
2019-09-13 09:50,50.6304616666667,-96.9807733333333,14.7,17.0,25,983.40,10.5,95,14.47,0.0,1010.11,142.0
2019-09-13 10:00,50.6304616666667,-96.9807733333333,14.8,17.9,25,983.51,10.5,95,14.48,0.0,1010.22,90.0
2019-09-13 10:10,50.63046,-96.9807733333333,13.4,15.6,16,983.50,10.4,94,14.48,0.0,1010.21,90.0
2019-09-13 10:20,50.63046,-96.9807733333333,12.8,16.3,13,983.48,10.4,95,14.47,0.0,1010.19,90.0
2019-09-13 10:30,50.63046,-96.9807733333333,8.4,14.6,342,983.51,10.2,97,14.47,0.0,1010.23,90.0
2019-09-13 10:40,50.63046,-96.9807733333333,7.3,11.3,314,983.40,9.3,99,14.47,0.0,1010.16,90.0
2019-09-13 10:50,50.63046,-96.9807733333333,8.7,13.8,312,983.29,9.0,100,14.46,0.0,1010.07,90.0
2019-09-13 11:00,50.63046,-96.9807733333333,9.6,12.9,316,983.33,8.7,100,14.45,0.0,1010.11,125.3
2019-09-13 11:10,50.63046,-96.9807733333333,10.9,17.1,315,983.27,8.6,100,14.44,0.0,1010.06,125.3
2019-09-13 11:20,50.63046,-96.9807733333333,10.1,14.1,317,983.30,8.5,100,14.43,0.0,1010.09,125.3
2019-09-13 11:30,50.63046,-96.9807716666667,9.2,12.6,315,983.34,8.5,100,14.41,0.0,1010.14,125.3
2019-09-13 11:40,50.63046,-96.9807716666667,8.5,13.7,314,983.42,8.4,100,14.41,0.0,1010.22,125.3
2019-09-13 11:50,50.63046,-96.9807716666667,8.0,11.9,315,983.47,8.4,100,14.43,0.0,1010.27,125.3
2019-09-13 12:00,50.63046,-96.9807716666667,8.4,12.3,314,983.53,8.4,100,14.44,0.0,1010.34,360.0
2019-09-13 12:10,50.63046,-96.9807716666667,7.5,11.2,312,983.45,8.4,100,14.45,0.0,1010.26,360.0
2019-09-13 12:20,50.6304733333333,-96.9807566666667,8.9,13.4,306,983.29,8.4,100,14.44,0.0,1010.10,360.0
2019-09-13 12:30,50.63046,-96.98076,7.4,12.5,306,983.19,8.4,100,14.44,0.0,1010.04,360.0
2019-09-13 12:40,50.6304633333333,-96.9807633333333,7.3,10.2,310,983.12,8.4,100,14.45,0.0,1009.98,360.0
2019-09-13 12:50,50.63045,-96.980755,8.7,13.5,321,983.06,8.6,99,14.46,0.0,1009.93,360.0
2019-09-13 13:00,50.63045,-96.9807583333333,8.5,13.9,325,983.11,8.8,99,14.43,0.0,1009.97,143.4
2019-09-13 13:10,50.6304516666667,-96.98076,8.2,12.0,321,983.11,8.8,99,14.42,0.0,1009.98,143.4
2019-09-13 13:20,50.6304516666667,-96.9807616666667,8.8,13.3,316,983.17,8.7,99,14.40,0.0,1010.05,143.4
2019-09-13 13:30,50.6304516666667,-96.9807616666667,8.7,14.4,319,983.21,8.7,99,14.37,0.0,1010.09,143.4
2019-09-13 13:40,50.6304516666667,-96.9807633333333,7.9,11.5,318,983.21,8.7,99,14.36,0.0,1010.09,143.4
2019-09-13 13:50,50.6304533333333,-96.9807666666667,7.6,11.5,312,983.17,8.6,99,14.35,0.0,1010.06,143.4
2019-09-13 14:00,50.6304533333333,-96.9807666666667,7.3,10.8,308,983.17,8.6,99,14.34,0.0,1010.05,167.4
2019-09-13 14:10,50.630455,-96.9807683333333,7.1,10.3,304,983.20,8.6,99,14.33,0.0,1010.08,167.4
2019-09-13 14:20,50.6304666666667,-96.9807633333333,6.7,10.9,304,983.25,8.7,99,14.32,0.0,1010.14,167.4
2019-09-13 14:30,50.63046,-96.9807633333333,7.6,12.1,304,983.20,8.7,98,14.30,0.0,1010.08,167.4
2019-09-13 14:40,50.63046,-96.9807666666667,7.1,12.8,305,983.16,8.8,96,14.29,0.0,1010.03,167.4
2019-09-13 14:50,50.6304583333333,-96.980765,7.1,11.5,306,983.14,8.9,96,14.27,0.0,1009.99,167.4
2019-09-13 15:00,50.630445,-96.98076,7.7,12.2,305,983.12,9.0,95,14.26,0.0,1009.96,176.8
2019-09-13 15:10,50.63046,-96.98077,6.9,10.6,300,983.12,9.0,96,14.27,0.0,1009.97,176.8
2019-09-13 15:20,50.6304616666667,-96.98077,7.4,11.1,305,983.05,9.0,98,14.28,0.0,1009.90,176.8
2019-09-13 15:30,50.6304616666667,-96.9807733333333,6.8,10.5,304,983.08,9.1,98,14.28,0.0,1009.93,176.8
2019-09-13 15:40,50.630465,-96.9807733333333,6.5,11.1,305,983.12,9.1,99,14.28,0.0,1009.97,176.8
2019-09-13 15:50,50.630465,-96.9807733333333,7.1,10.5,309,983.10,9.2,98,14.27,0.0,1009.95,176.8
2019-09-13 16:00,50.63043,-96.9807733333333,7.4,12.5,310,983.08,9.2,98,14.27,0.0,1009.92,360.0
2019-09-13 16:10,50.63045,-96.9807783333333,8.2,13.1,315,983.09,9.3,96,14.27,0.0,1009.93,360.0
2019-09-13 16:20,50.6304633333333,-96.9807783333333,7.3,12.1,308,983.17,9.3,97,14.26,0.0,1010.00,360.0
2019-09-13 16:30,50.6304616666667,-96.98078,8.0,12.7,305,983.20,9.4,97,14.26,0.0,1010.03,360.0
2019-09-13 16:40,50.63046,-96.9807666666667,7.8,14.3,312,983.27,9.5,97,14.26,0.0,1010.09,360.0
2019-09-13 16:50,50.6304616666667,-96.9807683333333,8.9,15.6,313,983.28,9.7,94,14.25,0.0,1010.08,360.0
2019-09-13 17:00,50.6304616666667,-96.9807666666667,10.2,15.0,316,983.42,10.0,91,14.26,0.0,1010.21,360.0
2019-09-13 17:10,50.6304616666667,-96.9808066666667,10.7,17.0,322,983.44,10.2,88,14.27,0.0,1010.23,360.0
2019-09-13 17:20,50.6304616666667,-96.9807883333333,9.5,14.5,330,983.53,10.4,87,14.27,0.0,1010.31,360.0
2019-09-13 17:30,50.6304583333333,-96.9807883333333,6.3,9.8,324,983.57,10.5,91,14.28,0.0,1010.34,360.0
2019-09-13 17:40,50.6304616666667,-96.9807833333333,8.9,14.2,316,983.48,10.9,87,14.28,0.0,1010.22,360.0
2019-09-13 17:50,50.630445,-96.98077,8.9,13.2,323,983.60,11.4,82,14.28,0.0,1010.32,360.0
2019-09-13 18:00,50.6304533333333,-96.980775,9.3,13.5,324,983.72,11.7,80,14.27,0.0,1010.43,323.4
2019-09-13 18:10,50.630455,-96.98077,8.0,12.5,316,983.73,12.0,77,14.27,0.0,1010.42,323.4
2019-09-13 18:20,50.6304583333333,-96.9807683333333,9.1,16.1,316,983.67,12.3,72,14.25,0.0,1010.34,323.4
2019-09-13 18:30,50.63046,-96.98078,10.0,17.2,317,983.61,12.7,67,14.25,0.0,1010.26,323.4
2019-09-13 18:40,50.6304583333333,-96.9807783333333,10.0,16.8,326,983.68,12.9,66,14.22,0.0,1010.31,323.4
2019-09-13 18:50,50.63046,-96.98078,9.2,14.8,327,983.75,13.3,65,14.21,0.0,1010.35,323.4
2019-09-13 19:00,50.63046,-96.98078,8.8,12.2,341,983.81,13.9,63,14.19,0.0,1010.38,360.0
2019-09-13 19:10,50.6304583333333,-96.98078,8.5,13.2,339,983.74,14.3,60,14.18,0.0,1010.28,360.0
2019-09-13 19:20,50.6304583333333,-96.9807783333333,7.3,13.5,336,983.73,14.7,59,14.21,0.0,1010.24,360.0
2019-09-13 19:30,50.630475,-96.9807866666667,10.7,19.5,320,983.57,15.2,50,14.25,0.0,1010.03,360.0
2019-09-13 19:40,50.6304533333333,-96.9807883333333,11.0,16.4,320,983.58,15.4,47,14.27,0.0,1010.01,360.0
2019-09-13 19:50,50.630455,-96.9807866666667,11.9,17.6,321,983.53,15.8,44,14.25,0.0,1009.93,360.0
2019-09-13 20:00,50.6304566666667,-96.9807833333333,10.7,16.4,329,983.52,15.9,44,14.29,0.0,1009.90,222.8
2019-09-13 20:10,50.6304566666667,-96.98078,10.1,14.7,323,983.47,16.3,42,14.33,0.0,1009.81,222.8
2019-09-13 20:20,50.6304566666667,-96.9807783333333,10.0,15.1,323,983.41,16.6,43,14.34,0.0,1009.72,222.8
2019-09-13 20:30,50.6304566666667,-96.98078,7.9,14.3,319,983.43,17.0,43,14.32,0.0,1009.71,222.8
2019-09-13 20:40,50.6304683333333,-96.9807766666667,11.5,18.8,306,983.33,17.3,41,14.29,0.0,1009.58,222.8
2019-09-13 20:50,50.630465,-96.9807733333333,9.6,17.5,311,983.42,17.3,38,14.26,0.0,1009.64,222.8
2019-09-13 21:00,50.630465,-96.9807816666667,7.9,13.0,306,983.48,17.6,38,14.37,0.0,1009.67,356.8
2019-09-13 21:10,50.6304583333333,-96.9807766666667,11.9,17.3,299,983.42,17.6,32,14.47,0.0,1009.59,356.8
2019-09-13 21:20,50.630455,-96.9807733333333,11.5,17.9,316,983.49,17.6,31,14.51,0.0,1009.64,356.8
2019-09-13 21:30,50.630455,-96.98077,11.5,19.2,311,983.58,17.7,30,14.52,0.0,1009.72,356.8
2019-09-13 21:40,50.6304566666667,-96.98077,10.8,18.5,308,983.70,17.7,30,14.55,0.0,1009.82,356.8
2019-09-13 21:50,50.6304583333333,-96.98077,11.3,17.7,300,983.78,17.7,30,14.58,0.0,1009.90,356.8
2019-09-13 22:00,50.6304466666667,-96.9807666666667,11.1,17.7,314,983.85,17.8,28,14.57,0.0,1009.96,130.6
2019-09-13 22:10,50.6304583333333,-96.9807733333333,10.1,16.5,309,983.94,17.8,29,14.56,0.0,1010.03,130.6
2019-09-13 22:20,50.6304533333333,-96.980775,10.1,17.0,307,983.97,17.5,30,14.60,0.0,1010.06,130.6
2019-09-13 22:30,50.630455,-96.9807783333333,9.1,14.3,316,984.12,16.9,32,14.62,0.0,1010.22,130.6
2019-09-13 22:40,50.6304566666667,-96.9807783333333,8.6,13.2,308,984.29,16.3,34,14.62,0.0,1010.42,130.6
2019-09-13 22:50,50.6304583333333,-96.98078,8.9,14.3,305,984.47,16.0,34,14.62,0.0,1010.61,130.6
2019-09-13 23:00,50.63046,-96.980775,7.6,12.4,310,984.59,15.7,34,14.62,0.0,1010.75,54.7
2019-09-13 23:10,50.63046,-96.9807783333333,5.9,8.8,319,984.67,15.6,34,14.60,0.0,1010.83,54.7
2019-09-13 23:20,50.6304583333333,-96.9807783333333,7.0,10.2,322,984.66,16.0,34,14.60,0.0,1010.80,54.7
2019-09-13 23:30,50.63046,-96.98078,6.2,9.3,318,984.73,16.1,36,14.60,0.0,1010.87,54.7
2019-09-13 23:40,50.63046,-96.9807766666667,6.5,10.3,321,984.75,16.2,38,14.60,0.0,1010.88,54.7
2019-09-13 23:50,50.63046,-96.980775,5.2,8.0,321,984.77,16.1,40,14.60,0.0,1010.91,54.7
